Date String (YYYY-MM-DD hh:mm:ss) UTC,Instrument flags,absolute air pressure of the measurement (hPa),sample flow rate (lpm),inlet stack bypass flow (lpm),air temperature of the measurement (°C),ambient temperature measured by the external sensor (°C),aerosol sample conditioner tube jacket temperature (°C),OPC LED temperature (°C),internal box temperature (°C),relative humidity of the measurement (%),span deviation,mass concentration of particles derived from Lorenz-Mie calculation of OPC scattering (μg/m³),mass concentration of particles derived from Lorenz-Mie calculation of OPC scattering (μg/m³),mass concentration of particles derived from Lorenz-Mie calculation of OPC scattering (μg/m³)
DateTimeUTC,F1_M11,P_M11,Q1_M11,Q2_M11,T1_M11,T2_M11,T3_M11,T4_M11,T5_M11,U1_M11,ZSPAN_M11,X0_M11,X2_M11,X1_M11
2024-03-10 14:00:00,SystemResetWarning,0828.8,4.99,000.00,018.7,018.2,000.0,027.1,020.3,09.8,0000.0,0009.27,0004.37,0003.85
2024-03-10 14:01:00,SystemResetWarning,0828.8,5.00,000.00,018.6,018.0,000.0,027.1,020.3,09.3,0000.0,0009.45,0004.40,0003.86
2024-03-10 14:02:00,SystemResetWarning,0828.8,5.01,000.00,018.6,017.9,000.0,027.1,020.2,09.3,0000.0,0009.52,0004.42,0003.86
2024-03-10 14:03:00,SystemResetWarning,0828.9,5.00,000.00,018.6,017.8,000.0,027.1,020.2,09.4,0000.0,0009.68,0004.43,0003.87
2024-03-10 14:04:00,SystemResetWarning,0828.8,5.01,000.00,018.5,017.7,000.0,027.1,020.1,09.5,0000.0,0010.22,0004.43,0003.88
2024-03-10 14:05:00,SystemResetWarning,0828.8,5.00,000.00,018.5,017.6,000.0,027.0,020.1,09.5,0000.0,0010.05,0004.45,0003.90
2024-03-10 14:06:00,SystemResetWarning,0828.8,5.00,000.00,018.4,017.6,000.0,027.0,020.1,09.5,0000.0,0009.88,0004.49,0003.93
2024-03-10 14:07:00,SystemResetWarning,0828.8,5.00,000.00,018.4,017.5,000.0,027.0,020.1,09.6,0000.0,0009.72,0004.50,0003.94
2024-03-10 14:08:00,SystemResetWarning,0828.8,5.00,000.00,018.4,017.5,000.0,027.0,020.0,09.7,0000.0,0009.42,0004.48,0003.96
2024-03-10 14:09:00,SystemResetWarning,0828.9,5.00,000.00,018.4,017.5,000.0,027.0,020.0,09.8,0000.0,0009.39,0004.48,0003.97
2024-03-10 14:10:00,SystemResetWarning,0828.9,5.00,000.00,018.4,017.5,000.0,027.0,020.0,10.4,0000.0,0008.89,0004.46,0003.98
2024-03-10 14:11:00,SystemResetWarning,0829.0,4.99,000.00,018.3,017.5,000.0,026.9,020.0,09.9,0000.0,0008.49,0004.47,0004.01
2024-03-10 14:12:00,SystemResetWarning,0829.0,5.00,000.00,018.3,017.6,000.0,026.9,020.0,09.6,0000.0,0008.17,0004.48,0004.03
2024-03-10 14:13:00,SystemResetWarning,0829.0,5.00,000.00,018.3,017.6,000.0,026.9,020.0,09.8,0000.0,0008.27,0004.49,0004.04
2024-03-10 14:14:00,SystemResetWarning,0828.9,5.00,000.00,018.3,017.6,000.0,026.9,020.0,10.1,0000.0,0008.39,0004.51,0004.06
2024-03-10 14:15:00,SystemResetWarning,0829.0,5.00,000.00,018.3,017.6,000.0,026.9,020.0,10.7,0000.0,0008.04,0004.53,0004.06
2024-03-10 14:16:00,SystemResetWarning,0828.9,5.00,000.00,018.3,017.7,000.0,026.9,020.0,10.7,0000.0,0008.45,0004.53,0004.07
2024-03-10 14:17:00,SystemResetWarning,0829.0,5.00,000.00,018.3,017.7,000.0,026.9,020.0,10.8,0000.0,0008.74,0004.52,0004.05
2024-03-10 14:18:00,SystemResetWarning,0828.9,5.00,000.00,018.3,017.7,000.0,026.9,020.0,10.5,0000.0,0008.83,0004.51,0004.02
2024-03-10 14:19:00,SystemResetWarning,0828.9,5.00,000.00,018.3,017.6,000.0,026.9,020.0,10.6,0000.0,0008.85,0004.48,0004.01
2024-03-10 14:20:00,SystemResetWarning,0828.9,5.00,000.00,018.3,017.6,000.0,026.9,020.0,10.4,0000.0,0008.82,0004.47,0004.02
2024-03-10 14:21:00,SystemResetWarning,0829.0,5.00,000.00,018.3,017.6,000.0,026.9,020.0,10.5,0000.0,0008.79,0004.47,0004.02
2024-03-10 14:22:00,SystemResetWarning,0829.0,5.00,000.00,018.3,017.6,000.0,026.9,020.0,10.4,0000.0,0008.84,0004.48,0004.01
2024-03-10 14:23:00,SystemResetWarning,0829.0,5.00,000.00,018.3,017.6,000.0,026.9,020.0,10.1,0000.0,0008.79,0004.46,0004.02
2024-03-10 14:24:00,SystemResetWarning,0829.0,5.01,000.00,018.3,017.6,000.0,026.9,020.0,10.2,0000.0,0008.65,0004.44,0004.03
2024-03-10 14:25:00,SystemResetWarning,0829.0,5.00,000.00,018.3,017.6,000.0,026.8,020.0,10.3,0000.0,0008.46,0004.44,0004.03
2024-03-10 14:26:00,SystemResetWarning,0828.9,4.99,000.00,018.3,017.6,000.0,026.8,020.0,10.7,0000.0,0008.19,0004.45,0004.05
2024-03-10 14:27:00,SystemResetWarning,0828.9,5.00,000.00,018.3,017.7,000.0,026.8,020.0,10.9,0000.0,0007.67,0004.46,0004.06
2024-03-10 14:28:00,SystemResetWarning,0828.9,5.02,000.00,018.3,017.7,000.0,026.8,020.0,10.9,0000.0,0007.36,0004.45,0004.08
2024-03-10 14:29:00,SystemResetWarning,0828.9,5.00,000.00,018.3,017.7,000.0,026.8,020.0,10.6,0000.0,0007.39,0004.45,0004.10
2024-03-10 14:30:00,SystemResetWarning,0829.0,5.00,000.00,018.3,017.7,000.0,026.8,020.0,10.2,0000.0,0007.37,0004.48,0004.10
2024-03-10 14:31:00,SystemResetWarning,0828.9,5.00,000.00,018.3,017.7,000.0,026.8,020.0,10.8,0000.0,0007.43,0004.49,0004.11
2024-03-10 14:32:00,SystemResetWarning,0828.9,5.00,000.00,018.3,017.7,000.0,026.8,020.0,10.9,0000.0,0007.96,0004.51,0004.10
2024-03-10 14:33:00,SystemResetWarning,0828.9,4.99,000.00,018.3,017.7,000.0,026.8,020.0,11.4,0000.0,0008.55,0004.54,0004.12
2024-03-10 14:34:00,SystemResetWarning,0828.8,5.00,000.00,018.3,017.7,000.0,026.8,020.0,11.2,0000.0,0008.80,0004.58,0004.14
2024-03-10 14:35:00,SystemResetWarning,0828.8,5.01,000.00,018.3,017.7,000.0,026.8,020.0,10.3,0000.0,0009.32,0004.65,0004.17
2024-03-10 14:36:00,SystemResetWarning,0828.9,5.01,000.00,018.3,017.7,000.0,026.8,020.0,10.5,0000.0,0009.40,0004.68,0004.20
2024-03-10 14:37:00,SystemResetWarning,0828.8,5.00,000.00,018.3,017.7,000.0,026.8,020.0,10.4,0000.0,0009.56,0004.71,0004.20
2024-03-10 14:38:00,SystemResetWarning,0828.7,4.99,000.00,018.3,017.7,000.0,026.8,020.0,10.6,0000.0,0010.05,0004.73,0004.22
2024-03-10 14:39:00,SystemResetWarning,0828.7,5.00,000.00,018.3,017.7,000.0,026.8,020.0,10.8,0000.0,0010.64,0004.75,0004.23
2024-03-10 14:40:00,SystemResetWarning,0828.8,4.98,000.00,018.3,017.7,000.0,026.8,020.0,10.6,0000.0,0011.27,0004.75,0004.24
2024-03-10 14:41:00,SystemResetWarning,0828.8,4.99,000.00,018.3,017.7,000.0,026.8,020.0,10.4,0000.0,0011.21,0004.72,0004.24
2024-03-10 14:42:00,SystemResetWarning,0828.8,5.00,000.00,018.3,017.7,000.0,026.8,020.0,10.5,0000.0,0011.11,0004.68,0004.23
2024-03-10 14:43:00,SystemResetWarning,0828.8,5.01,000.00,018.3,017.7,000.0,026.8,020.0,10.5,0000.0,0011.40,0004.69,0004.22
2024-03-10 14:44:00,SystemResetWarning,0828.8,4.99,000.00,018.3,017.7,000.0,026.8,020.0,10.7,0000.0,0010.86,0004.67,0004.21
2024-03-10 14:45:00,SystemResetWarning,0828.8,5.00,000.00,018.3,017.7,000.0,026.8,020.0,10.6,0000.0,0010.82,0004.66,0004.20
2024-03-10 14:46:00,SystemResetWarning,0828.9,5.01,000.00,018.3,017.7,000.0,026.8,020.0,11.2,0000.0,0010.27,0004.63,0004.17
2024-03-10 14:47:00,SystemResetWarning,0829.0,5.01,000.00,018.3,017.7,000.0,026.8,020.0,11.0,0000.0,0010.27,0004.62,0004.16
2024-03-10 14:48:00,SystemResetWarning,0828.9,4.99,000.00,018.3,017.7,000.0,026.8,020.0,10.8,0000.0,0010.13,0004.57,0004.13
2024-03-10 14:49:00,SystemResetWarning,0829.0,4.99,000.00,018.3,017.7,000.0,026.8,020.0,09.9,0000.0,0009.83,0004.57,0004.11
2024-03-10 14:50:00,SystemResetWarning,0829.0,5.01,000.00,018.3,017.7,000.0,026.8,020.0,10.9,0000.0,0009.32,0004.57,0004.09
2024-03-10 14:51:00,SystemResetWarning,0829.0,5.01,000.00,018.3,017.6,000.0,026.8,020.0,11.8,0000.0,0008.39,0004.53,0004.07
2024-03-10 14:52:00,SystemResetWarning,0829.0,5.00,000.00,018.3,017.6,000.0,026.8,020.0,10.8,0000.0,0008.37,0004.52,0004.06
2024-03-10 14:53:00,SystemResetWarning,0829.0,4.99,000.00,018.3,017.6,000.0,026.8,020.0,10.3,0000.0,0008.56,0004.53,0004.03
2024-03-10 14:54:00,SystemResetWarning,0829.0,4.99,000.00,018.3,017.6,000.0,026.8,020.0,10.8,0000.0,0008.09,0004.51,0004.02
2024-03-10 14:55:00,SystemResetWarning,0829.1,5.01,000.00,018.3,017.7,000.0,026.8,020.0,11.5,0000.0,0007.84,0004.49,0004.00
2024-03-10 14:56:00,SystemResetWarning,0829.1,5.01,000.00,018.3,017.7,000.0,026.8,020.0,11.8,0000.0,0007.81,0004.47,0003.98
2024-03-10 14:57:00,SystemResetWarning,0829.2,5.00,000.00,018.3,017.7,000.0,026.8,020.0,11.7,0000.0,0007.86,0004.46,0003.97
2024-03-10 14:58:00,SystemResetWarning,0829.1,4.99,000.00,018.3,017.7,000.0,026.8,020.0,12.0,0000.0,0007.76,0004.39,0003.94
2024-03-10 14:59:00,SystemResetWarning,0829.1,4.99,000.00,018.3,017.7,000.0,026.8,020.0,11.9,0000.0,0007.78,0004.37,0003.92
